SCP
0 0 0 0 0 0 0 0 0 0 0 0 0 0 0 0 0 0 0 0 0 0 0 0 0 0 0 0 0 0 0 0 0 0 0 0 0 0 0 0 0 0 0 0
0 0 0 0 0 0 0 0 0 0 0 0 0 0 0 0 0 0 0 0 0 0 0 0 0 0 0 0 0 0 0 0 0 0 0 0 0 0 0 0 0 0 0 0
0 0 0 0 0 0 0 0 0 0 0 0 0 0 0 0 0 0 0 0 0 0 0 0 0 0 0 0 0 0 0 0 0 0 0 0 0 0 0 0 0 0 0 0
0 0 0 0 0 0 0 0 0 0 0 0 0 0 0 0 0 0 0 0 0 0 0 0 0 0 0 0 0 0 0 0 0 0 0 0 0 0 0 0 0 0 0 0
0 0 0 0 0 0 0 0 0 0 0 0 0 0 -0 0 0 0 0 0 0 0 0 0 0 0 0 0 0 0 0 0 0 0 0 0 0 0 0 0 0 0 0 0
0 0 0 0 0 0 0 0 0 0 0 0 0 0 0 0 0 0 0 0 0 0 0 0 0 0 0 0 0 0 0 0 0 0 0 0 0 0 0 0 0 0 0 0
0 0 0 0 0 0 0 0 0 0 0 0 0 0 0 0 0 0 0 0 0 0 0 0 0 0 0 0 0 0 0 0 0 0 0 0 0 0 0 0 0 0 0 0
0 -0 0 0 0 0 0 0 0 0 0 0 0 0 0 0 0 0 0 0 0 0 0 0 0 0 0 0 0 0 0 0 0 0 0 0 0 0 0 0 0 0 0 0
0 0 0 0 0 0 0 0 0 0 0 0 0 0 0 0 0 0 0 0 0 0 0 0 0 0 0 0 0 0 0 0 0 0 0 0 0 0 0 0 0 0 0 0
0 0 0 0 0 0 0 0 0 0 0 0 0 0 0 0 0 0 0 0 0 0 0 0 0 0 0 0 -0 0 0 0 0 0 0 0 0 0 0 0 0 0 0 0
0 0 0 0 0 0 0 0 0 0 0 0 0 0 0 0 0 0 0 0 0 0 0 0 0 0 0 0 0 -0 0 0 0 0 0 0 0 0 0 0 0 0 0 0
0 0 0 0 0 0 0 0 0 0 0 0 0 0 0 0 0 0 0 0 0 0 0 0 0 0 0 0 0 -0 0 0 0 0 0 0 0 0 0 0 0 0 0 0
0 0 0 0 0 0 0 0 0 0 0 0 0 0 0 0 0 0 0 0 0 0 0 0 0 0 0 0 0 -0 0 0 0 0 0 0 0 0 0 0 0 0 0 0
0 0 0 0 0 0 0 0 0 0 0 0 0 0 0 0 0 0 0 -0 -0 -0 0 0 0 0 0 0 0 0 0 0 0 0 0 0 0 0 0 0 0 0 0 0
0 0 0 0 0 0 0 0 0 0 0 0 0 0 0 0 0 0 0 0 0 0 0 0 0 0 0 0 0 0 0 0 0 0 0 0 0 0 0 0 0 0 0 0
0 0 0 0 0 0 0 0 0 0 0 0 0 0 0 0 0 0 0 0 0 0 0 0 0 0 0 0 0 0 0 0 0 0 0 0 0 0 0 0 0 0 0 0
0 0 0 0 0 0 0 0 0 0 0 0 0 0 0 0 0 0 0 0 0 0 0 0 0 0 0 0 0 0 0 0 0 0 0 0 0 0 0 0 0 0 0 0
0 0 0 0 0 0 0 0 0 0 0 0 0 0 0 0 0 0 0 0 0 0 0 0 0 0 0 0 0 0 0 0 0 0 0 0 0 0 0 0 0 0 0 0
0 0 0 0 0 0 0 0 0 0 0 0 0 0 0 0 0 0 0 0 0 0 0 0 0 0 0 0 0 0 0 0 0 0 0 0 0 0 0 0 0 0 0 0
0 0 0 0 0 0 0 0 0 0 0 0 0 0 0 0 0 0 0 0 0 0 0 0 -0 0 0 0 0 0 0 0 0 0 0 0 0 0 0 0 0 0 0 0
0 0 0 0 0 0 0 0 0 0 0 0 0 0 0 0 0 -0 -0 0 0 0 0 -0 -0 0 0 0 0 0 0 0 0 0 0 0 0 0 0 0 0 0 0 0
0 0 0 0 0 0 0 0 0 0 0 0 0 0 0 0 -0 -0 -0 -0 -0 0 0 0 -0 0 0 0 0 0 0 0 0 0 0 0 0 0 0 0 0 0 0 0
0 0 0 0 0 0 0 0 0 0 0 0 0 0 0 0 0 0 0 0 0 -0 0 -0 -0 0 0 0 0 0 0 0 0 0 0 0 0 0 0 0 0 0 0 -0
0 0 0 0 0 0 0 0 0 0 0 0 0 0 0 0 0 0 0 0 0 0 -0 -0 -0 -0 0 0 0 0 0 0 0 0 0 0 0 0 0 0 0 0 0 0
0 0 0 0 0 0 0 0 0 0 0 0 0 0 0 0 0 0 0 0 0 0 -0 -0 -0 -0 0 0 0 0 0 0 0 0 0 0 0 0 0 0 0 0 0 0
0 0 0 0 0 0 0 0 0 0 0 0 0 0 0 0 0 0 0 0 0 0 -0 -0 -0 -0 0 0 0 0 0 0 0 0 0 0 0 0 0 0 0 0 0 0
Wind_Speed_500mb
10 12 4 3 4 2 4 3 4 6 8 8 8 21 37 37 34 42 54 59 67 61 48 48 48 48 46 45 40 35 34 32 35 36 34 35 36 39 41 43 45 46 46 47
12 6 4 0 7 7 9 4 8 9 5 7 11 32 38 25 14 13 26 30 37 36 42 40 51 49 47 42 36 32 30 32 33 35 36 40 42 44 44 43 44 45 46 49
10 3 7 5 10 8 4 3 4 6 15 1 16 16 11 6 8 15 14 18 15 29 39 40 50 52 47 40 32 26 24 28 32 36 41 44 44 45 45 44 43 44 48 52
10 7 6 8 8 5 3 5 4 5 9 5 10 10 15 7 14 8 10 9 1 20 30 37 46 49 43 31 27 22 23 29 35 41 44 44 44 45 44 44 44 46 50 52
6 7 10 10 3 4 1 6 3 5 7 7 12 7 16 8 10 13 16 9 11 20 28 35 39 37 32 30 20 20 25 34 39 43 43 43 44 44 43 44 48 50 50 54
3 5 6 2 5 6 3 5 10 7 6 6 7 6 12 6 8 7 8 21 20 25 29 33 36 39 36 22 22 27 31 35 36 36 37 40 42 41 44 44 49 51 55 59
10 4 6 8 4 5 11 11 7 11 8 9 3 2 19 14 12 9 14 30 30 31 35 38 41 41 31 30 34 36 36 36 32 33 35 37 38 39 43 46 49 53 57 61
7 13 6 10 6 4 6 10 9 10 4 10 4 12 12 9 11 18 23 27 35 39 40 40 39 39 36 36 41 43 40 34 32 32 32 34 36 39 42 44 48 54 61 63
6 9 2 7 7 6 4 4 4 12 3 7 6 16 20 6 13 24 25 29 42 46 47 44 40 35 33 41 41 40 37 33 32 30 31 33 36 39 40 43 48 55 58 58
6 7 3 7 4 11 8 3 8 7 3 9 10 13 13 15 15 13 16 33 45 47 45 44 40 31 32 39 38 35 36 34 32 33 33 33 35 38 39 41 47 51 54 52
7 7 10 4 5 13 4 3 7 6 8 9 4 11 15 16 15 14 26 42 47 52 53 50 43 34 29 34 31 26 34 35 34 32 31 33 36 37 36 39 43 47 49 47
2 7 5 17 3 6 7 11 9 8 12 6 4 19 13 16 9 19 37 33 37 56 61 60 60 51 38 32 27 25 33 37 34 33 34 35 37 36 34 35 39 43 46 43
8 3 7 17 8 7 5 8 7 5 4 12 5 14 5 12 16 21 33 44 45 47 49 71 78 80 63 42 36 34 39 44 39 37 37 37 36 34 31 31 35 40 41 40
10 8 15 14 13 7 6 8 10 10 6 16 38 59 19 35 38 47 70 84 93 94 91 75 76 97 97 87 72 53 53 57 47 42 40 37 35 33 30 29 32 35 36 36
9 11 11 17 17 10 23 15 19 27 26 21 67 50 9 30 41 70 68 86 91 94 92 94 99 92 86 88 89 91 80 66 54 45 41 35 35 35 33 29 30 32 32 31
4 7 3 17 18 30 42 32 39 40 40 34 51 67 39 70 76 63 65 73 79 88 89 89 87 85 86 84 83 74 66 63 56 47 40 37 35 36 36 31 30 29 27 27
9 4 6 13 6 11 19 31 37 24 9 21 28 45 27 33 49 62 51 76 83 86 88 88 88 81 73 61 50 46 53 55 55 46 39 39 36 37 36 33 32 28 24 27
16 8 6 12 9 7 13 4 10 16 12 19 32 32 31 38 57 63 57 66 66 73 75 78 76 69 59 57 55 52 50 51 49 44 42 40 37 36 34 32 31 27 23 25
34 22 9 6 8 19 22 14 10 11 11 5 7 20 50 73 70 31 45 78 77 79 79 85 81 73 57 50 48 45 44 43 43 42 43 39 36 35 33 29 27 23 21 20
4 22 13 3 7 13 9 7 30 37 41 11 39 55 69 63 32 21 73 110 112 102 91 85 94 62 45 43 47 43 39 37 38 39 36 37 38 34 31 26 24 20 19 15
5 4 29 24 18 16 1 24 37 3 21 71 80 71 65 38 54 86 86 87 96 98 103 91 80 44 33 41 40 37 33 34 26 30 36 42 38 32 28 28 25 21 18 18
11 8 6 3 9 31 28 38 9 43 89 85 83 77 74 78 85 87 91 79 84 78 86 82 68 55 32 35 35 33 32 22 27 34 39 39 35 32 30 29 27 24 21 20
6 13 8 18 13 23 77 66 78 76 69 88 89 91 83 85 87 89 84 83 91 87 89 89 77 61 41 38 36 36 29 26 31 30 32 34 34 34 31 31 29 26 25 23
8 14 8 7 3 39 77 83 76 76 73 83 87 89 94 90 97 97 95 93 86 87 79 82 78 79 75 50 45 43 40 34 37 33 31 32 34 36 34 33 32 30 28 25
15 8 9 23 37 59 53 67 71 83 89 91 92 92 96 94 98 98 96 91 95 89 86 78 82 74 65 45 45 41 44 47 41 39 35 36 34 35 37 36 34 31 28 30
21 16 11 29 59 53 62 83 103 98 93 94 88 96 104 87 88 100 91 91 92 90 93 83 84 71 65 52 51 45 42 46 42 42 40 40 40 36 38 41 38 36 32 32
Wind_Direction_500mb
22 65 76 332 6 23 87 72 299 290 22 339 266 283 283 291 279 273 270 266 257 254 243 228 220 222 220 218 228 244 253 261 261 266 266 268 273 279 285 292 296 297 298 299
26 88 317 297 33 59 61 70 297 292 40 3 338 292 282 285 261 282 294 290 260 237 227 214 209 213 212 220 231 243 254 254 261 266 270 271 278 284 289 293 293 295 298 301
114 127 18 75 39 46 58 143 340 264 328 359 331 292 313 322 298 308 325 321 254 225 210 201 201 207 212 218 236 248 249 257 264 268 270 274 280 286 292 295 295 297 297 299
79 10 62 54 77 63 360 9 33 10 37 277 19 278 302 328 301 285 311 2 181 196 197 197 200 202 210 219 216 224 247 260 266 268 272 277 281 289 295 294 295 296 298 300
268 19 36 57 48 60 142 38 66 92 91 46 350 66 272 325 294 260 239 221 182 178 183 183 187 197 197 193 210 246 263 271 272 270 271 273 280 288 291 294 297 300 301 303
78 43 51 76 68 54 79 55 42 63 95 19 272 110 287 261 226 295 232 219 203 196 195 193 187 185 181 208 251 268 276 280 274 268 268 273 279 284 290 296 300 303 305 307
351 17 360 32 35 40 59 49 337 354 9 230 303 40 245 259 269 248 241 215 204 196 193 191 192 191 208 257 279 286 286 287 276 273 270 270 274 283 292 297 300 303 307 309
102 332 29 353 60 180 54 129 149 229 279 276 354 244 248 223 302 256 277 234 208 202 203 206 208 211 241 269 281 286 285 278 277 273 267 270 278 286 294 298 305 310 312 313
99 287 10 44 21 67 279 39 164 98 78 41 261 288 295 308 278 249 253 224 215 214 211 210 210 225 256 268 274 280 276 275 273 269 270 275 281 289 297 302 308 313 315 313
168 350 324 302 74 34 130 143 35 10 332 300 292 280 241 297 286 276 266 233 224 223 223 220 218 238 259 267 272 279 272 272 267 268 268 273 284 292 297 304 313 318 317 315
122 95 290 13 184 182 38 360 37 125 155 204 279 259 217 237 254 266 274 248 238 231 233 226 224 242 262 273 280 283 266 262 263 266 271 279 286 291 296 307 317 321 320 319
84 134 263 229 127 165 170 190 159 134 269 229 169 271 241 244 284 311 301 288 273 258 247 238 232 244 262 290 295 294 269 260 264 268 273 279 284 288 292 306 318 325 325 325
172 338 353 336 14 360 210 201 163 117 87 197 176 258 288 287 322 314 303 317 319 317 288 255 244 243 253 276 296 300 274 263 262 264 268 273 278 281 287 303 320 326 326 326
160 188 183 213 205 145 206 201 213 161 160 271 242 271 302 292 298 302 300 302 302 299 294 287 270 253 256 262 275 280 283 260 256 258 262 270 276 277 281 296 318 325 326 327
149 226 229 244 247 213 250 215 222 225 242 225 273 268 279 277 293 292 295 291 293 292 289 284 281 278 272 269 272 272 268 246 247 252 258 268 273 274 274 286 313 319 328 329
180 272 110 276 233 246 262 253 245 237 245 253 263 274 266 280 284 288 286 289 286 294 296 298 294 288 282 279 276 267 234 235 241 247 254 259 268 270 270 278 301 311 325 328
172 164 38 266 347 307 286 232 237 232 183 217 253 263 291 280 285 300 320 305 298 301 307 307 301 292 286 278 266 240 231 234 238 242 246 255 264 268 268 272 288 300 313 328
228 194 196 283 5 275 251 219 191 195 218 228 262 284 337 328 319 318 314 311 321 326 325 319 312 306 284 275 254 244 227 230 235 242 244 250 258 265 266 270 280 293 301 304
217 225 250 249 198 293 292 301 348 341 298 255 347 336 335 333 321 328 339 340 338 337 341 334 320 298 287 260 234 226 224 231 237 239 242 246 251 260 263 266 275 286 303 286
157 216 207 112 213 242 226 122 8 349 302 22 344 330 324 328 307 315 315 312 314 321 322 333 329 296 265 224 218 223 229 236 244 245 242 241 245 254 259 261 268 274 283 285
121 201 221 234 249 268 197 15 3 28 304 324 316 311 308 295 278 291 296 296 301 303 307 323 332 304 259 226 223 224 231 245 254 246 233 234 240 249 253 252 259 262 266 273
172 166 195 24 253 261 2 341 344 298 303 303 300 298 293 291 291 291 292 289 290 300 300 308 312 322 285 254 236 233 240 248 245 240 233 235 237 243 249 249 252 255 256 267
284 196 200 189 219 303 307 292 293 293 290 290 291 293 292 292 288 288 286 287 290 294 295 301 305 282 290 283 277 258 252 255 244 243 238 238 233 238 244 246 248 250 255 257
269 220 228 341 195 288 288 290 289 288 288 293 292 290 291 290 289 285 282 282 276 283 285 293 292 276 278 288 283 284 266 256 248 242 240 241 236 237 242 247 243 247 249 253
218 177 215 263 286 286 291 296 298 304 304 302 296 290 289 289 284 282 280 274 274 278 279 287 281 276 276 271 272 274 272 252 246 247 244 247 243 242 243 245 247 245 243 248
203 244 245 270 284 285 288 296 302 303 301 301 298 300 301 293 288 288 274 268 270 268 277 276 276 271 266 264 264 261 262 242 243 248 248 250 253 247 246 246 242 245 240 245
Wind_Speed_850mb
10 12 4 3 4 2 4 3 4 6 8 8 8 21 37 37 34 42 54 59 67 61 48 48 48 48 46 45 40 35 34 32 35 36 34 35 36 39 41 43 45 46 46 47
12 6 4 0 7 7 9 4 8 9 5 7 11 32 38 25 14 13 26 30 37 36 42 40 51 49 47 42 36 32 30 32 33 35 36 40 42 44 44 43 44 45 46 49
10 3 7 5 10 8 4 3 4 6 15 1 16 16 11 6 8 15 14 18 15 29 39 40 50 52 47 40 32 26 24 28 32 36 41 44 44 45 45 44 43 44 48 52
10 7 6 8 8 5 3 5 4 5 9 5 10 10 15 7 14 8 10 9 1 20 30 37 46 49 43 31 27 22 23 29 35 41 44 44 44 45 44 44 44 46 50 52
6 7 10 10 3 4 1 6 3 5 7 7 12 7 16 8 10 13 16 9 11 20 28 35 39 37 32 30 20 20 25 34 39 43 43 43 44 44 43 44 48 50 50 54
3 5 6 2 5 6 3 5 10 7 6 6 7 6 12 6 8 7 8 21 20 25 29 33 36 39 36 22 22 27 31 35 36 36 37 40 42 41 44 44 49 51 55 59
10 4 6 8 4 5 11 11 7 11 8 9 3 2 19 14 12 9 14 30 30 31 35 38 41 41 31 30 34 36 36 36 32 33 35 37 38 39 43 46 49 53 57 61
7 13 6 10 6 4 6 10 9 10 4 10 4 12 12 9 11 18 23 27 35 39 40 40 39 39 36 36 41 43 40 34 32 32 32 34 36 39 42 44 48 54 61 63
6 9 2 7 7 6 4 4 4 12 3 7 6 16 20 6 13 24 25 29 42 46 47 44 40 35 33 41 41 40 37 33 32 30 31 33 36 39 40 43 48 55 58 58
6 7 3 7 4 11 8 3 8 7 3 9 10 13 13 15 15 13 16 33 45 47 45 44 40 31 32 39 38 35 36 34 32 33 33 33 35 38 39 41 47 51 54 52
7 7 10 4 5 13 4 3 7 6 8 9 4 11 15 16 15 14 26 42 47 52 53 50 43 34 29 34 31 26 34 35 34 32 31 33 36 37 36 39 43 47 49 47
2 7 5 17 3 6 7 11 9 8 12 6 4 19 13 16 9 19 37 33 37 56 61 60 60 51 38 32 27 25 33 37 34 33 34 35 37 36 34 35 39 43 46 43
8 3 7 17 8 7 5 8 7 5 4 12 5 14 5 12 16 21 33 44 45 47 49 71 78 80 63 42 36 34 39 44 39 37 37 37 36 34 31 31 35 40 41 40
10 8 15 14 13 7 6 8 10 10 6 16 38 59 19 35 38 47 70 84 93 94 91 75 76 97 97 87 72 53 53 57 47 42 40 37 35 33 30 29 32 35 36 36
9 11 11 17 17 10 23 15 19 27 26 21 67 50 9 30 41 70 68 86 91 94 92 94 99 92 86 88 89 91 80 66 54 45 41 35 35 35 33 29 30 32 32 31
4 7 3 17 18 30 42 32 39 40 40 34 51 67 39 70 76 63 65 73 79 88 89 89 87 85 86 84 83 74 66 63 56 47 40 37 35 36 36 31 30 29 27 27
9 4 6 13 6 11 19 31 37 24 9 21 28 45 27 33 49 62 51 76 83 86 88 88 88 81 73 61 50 46 53 55 55 46 39 39 36 37 36 33 32 28 24 27
16 8 6 12 9 7 13 4 10 16 12 19 32 32 31 38 57 63 57 66 66 73 75 78 76 69 59 57 55 52 50 51 49 44 42 40 37 36 34 32 31 27 23 25
34 22 9 6 8 19 22 14 10 11 11 5 7 20 50 73 70 31 45 78 77 79 79 85 81 73 57 50 48 45 44 43 43 42 43 39 36 35 33 29 27 23 21 20
4 22 13 3 7 13 9 7 30 37 41 11 39 55 69 63 32 21 73 110 112 102 91 85 94 62 45 43 47 43 39 37 38 39 36 37 38 34 31 26 24 20 19 15
5 4 29 24 18 16 1 24 37 3 21 71 80 71 65 38 54 86 86 87 96 98 103 91 80 44 33 41 40 37 33 34 26 30 36 42 38 32 28 28 25 21 18 18
11 8 6 3 9 31 28 38 9 43 89 85 83 77 74 78 85 87 91 79 84 78 86 82 68 55 32 35 35 33 32 22 27 34 39 39 35 32 30 29 27 24 21 20
6 13 8 18 13 23 77 66 78 76 69 88 89 91 83 85 87 89 84 83 91 87 89 89 77 61 41 38 36 36 29 26 31 30 32 34 34 34 31 31 29 26 25 23
8 14 8 7 3 39 77 83 76 76 73 83 87 89 94 90 97 97 95 93 86 87 79 82 78 79 75 50 45 43 40 34 37 33 31 32 34 36 34 33 32 30 28 25
15 8 9 23 37 59 53 67 71 83 89 91 92 92 96 94 98 98 96 91 95 89 86 78 82 74 65 45 45 41 44 47 41 39 35 36 34 35 37 36 34 31 28 30
21 16 11 29 59 53 62 83 103 98 93 94 88 96 104 87 88 100 91 91 92 90 93 83 84 71 65 52 51 45 42 46 42 42 40 40 40 36 38 41 38 36 32 32
Wind_Direction_850mb
22 65 76 332 6 23 87 72 299 290 22 339 266 283 283 291 279 273 270 266 257 254 243 228 220 222 220 218 228 244 253 261 261 266 266 268 273 279 285 292 296 297 298 299
26 88 317 297 33 59 61 70 297 292 40 3 338 292 282 285 261 282 294 290 260 237 227 214 209 213 212 220 231 243 254 254 261 266 270 271 278 284 289 293 293 295 298 301
114 127 18 75 39 46 58 143 340 264 328 359 331 292 313 322 298 308 325 321 254 225 210 201 201 207 212 218 236 248 249 257 264 268 270 274 280 286 292 295 295 297 297 299
79 10 62 54 77 63 360 9 33 10 37 277 19 278 302 328 301 285 311 2 181 196 197 197 200 202 210 219 216 224 247 260 266 268 272 277 281 289 295 294 295 296 298 300
268 19 36 57 48 60 142 38 66 92 91 46 350 66 272 325 294 260 239 221 182 178 183 183 187 197 197 193 210 246 263 271 272 270 271 273 280 288 291 294 297 300 301 303
78 43 51 76 68 54 79 55 42 63 95 19 272 110 287 261 226 295 232 219 203 196 195 193 187 185 181 208 251 268 276 280 274 268 268 273 279 284 290 296 300 303 305 307
351 17 360 32 35 40 59 49 337 354 9 230 303 40 245 259 269 248 241 215 204 196 193 191 192 191 208 257 279 286 286 287 276 273 270 270 274 283 292 297 300 303 307 309
102 332 29 353 60 180 54 129 149 229 279 276 354 244 248 223 302 256 277 234 208 202 203 206 208 211 241 269 281 286 285 278 277 273 267 270 278 286 294 298 305 310 312 313
99 287 10 44 21 67 279 39 164 98 78 41 261 288 295 308 278 249 253 224 215 214 211 210 210 225 256 268 274 280 276 275 273 269 270 275 281 289 297 302 308 313 315 313
168 350 324 302 74 34 130 143 35 10 332 300 292 280 241 297 286 276 266 233 224 223 223 220 218 238 259 267 272 279 272 272 267 268 268 273 284 292 297 304 313 318 317 315
122 95 290 13 184 182 38 360 37 125 155 204 279 259 217 237 254 266 274 248 238 231 233 226 224 242 262 273 280 283 266 262 263 266 271 279 286 291 296 307 317 321 320 319
84 134 263 229 127 165 170 190 159 134 269 229 169 271 241 244 284 311 301 288 273 258 247 238 232 244 262 290 295 294 269 260 264 268 273 279 284 288 292 306 318 325 325 325
172 338 353 336 14 360 210 201 163 117 87 197 176 258 288 287 322 314 303 317 319 317 288 255 244 243 253 276 296 300 274 263 262 264 268 273 278 281 287 303 320 326 326 326
160 188 183 213 205 145 206 201 213 161 160 271 242 271 302 292 298 302 300 302 302 299 294 287 270 253 256 262 275 280 283 260 256 258 262 270 276 277 281 296 318 325 326 327
149 226 229 244 247 213 250 215 222 225 242 225 273 268 279 277 293 292 295 291 293 292 289 284 281 278 272 269 272 272 268 246 247 252 258 268 273 274 274 286 313 319 328 329
180 272 110 276 233 246 262 253 245 237 245 253 263 274 266 280 284 288 286 289 286 294 296 298 294 288 282 279 276 267 234 235 241 247 254 259 268 270 270 278 301 311 325 328
172 164 38 266 347 307 286 232 237 232 183 217 253 263 291 280 285 300 320 305 298 301 307 307 301 292 286 278 266 240 231 234 238 242 246 255 264 268 268 272 288 300 313 328
228 194 196 283 5 275 251 219 191 195 218 228 262 284 337 328 319 318 314 311 321 326 325 319 312 306 284 275 254 244 227 230 235 242 244 250 258 265 266 270 280 293 301 304
217 225 250 249 198 293 292 301 348 341 298 255 347 336 335 333 321 328 339 340 338 337 341 334 320 298 287 260 234 226 224 231 237 239 242 246 251 260 263 266 275 286 303 286
157 216 207 112 213 242 226 122 8 349 302 22 344 330 324 328 307 315 315 312 314 321 322 333 329 296 265 224 218 223 229 236 244 245 242 241 245 254 259 261 268 274 283 285
121 201 221 234 249 268 197 15 3 28 304 324 316 311 308 295 278 291 296 296 301 303 307 323 332 304 259 226 223 224 231 245 254 246 233 234 240 249 253 252 259 262 266 273
172 166 195 24 253 261 2 341 344 298 303 303 300 298 293 291 291 291 292 289 290 300 300 308 312 322 285 254 236 233 240 248 245 240 233 235 237 243 249 249 252 255 256 267
284 196 200 189 219 303 307 292 293 293 290 290 291 293 292 292 288 288 286 287 290 294 295 301 305 282 290 283 277 258 252 255 244 243 238 238 233 238 244 246 248 250 255 257
269 220 228 341 195 288 288 290 289 288 288 293 292 290 291 290 289 285 282 282 276 283 285 293 292 276 278 288 283 284 266 256 248 242 240 241 236 237 242 247 243 247 249 253
218 177 215 263 286 286 291 296 298 304 304 302 296 290 289 289 284 282 280 274 274 278 279 287 281 276 276 271 272 274 272 252 246 247 244 247 243 242 243 245 247 245 243 248
203 244 245 270 284 285 288 296 302 303 301 301 298 300 301 293 288 288 274 268 270 268 277 276 276 271 266 264 264 261 262 242 243 248 248 250 253 247 246 246 242 245 240 245